Location: Bamazo
(6.7448°N, 10.8189°W)
Time: 04:10:37
(UTC+00:00)

ATLAS 2AS CENTAUR R/B - Pass Details

Date: 18 September 2020
Orbit: 939 x 1273 km, 63.7° (Epoch: 19 October)

Event Time Altitude Azimuth Distance (km) Brightness Sun altitude
Rises 20:48:22 0° 214° (SW) 4,026 6.1 -32.3°
Reaches altitude 10° 20:51:05 10° 219° (SW) 3,107 5.4 -33.0°
Maximum altitude 20:58:23 53° 294° (WNW) 1,483 3.6 -34.8°
Enters shadow 21:04:47 15° 6° (N) 2,842 4.9 -36.4°
